Terug naar catalogus

FREGAT DEB

LostUNKNOWN
NORAD 45911·DEBRIS·🇷🇺 Russia

Gelanceerd Jul 18, 2011 vanaf Baikonur Cosmodrome

Loading…

Volgende Passages (komende 24 uur)

TLE

VerouderdSource: Space-Track

Epoch: Mar 8, 2022, 00:29 UTC

1 45911U 11037EG  22067.02043742  .00057297  00000-0  27315+0 0  9998
2 45911  52.7521 298.3783 2047424 263.6866  72.8397  9.96649852 58708

Volg FREGAT DEB in realtime met AllMySat

Download on the App Store